Weather History for Elizabeth City, NC

Change the Weather History Date:

Thursday, December 13, 2012

  Actual Average Record
Temperature  
Mean Temperature 51 °F 45 °F  
Max Temperature 56 °F 55 °F 76 °F (1940)
Min Temperature 45 °F 35 °F 9 °F (1958)
Degree Days  
Heating Degree Days 14 20  
Month to date heating degree days 113 240  
Since 1 July heating degree days 622 755  
Cooling Degree Days 0 0  
Month to date cooling degree days 3 0  
Year to date cooling degree days 2236 1588  
Moisture  
Dew Point 42 °F    
Average Humidity 74    
Maximum Humidity 86    
Minimum Humidity 61    
Precipitation  
Precipitation 0.13 in 0.09 in 1.50 in (1998)
Month to date precipitation 0.39 1.08  
Year to date precipitation 44.31 45.10  
Snow  
Snow 0.00 in - 1.00 in (1945)
Month to date snowfall 0.0  
Since 1 July snowfall 0.0  
Snow Depth 0.00 in    
Sea Level Pressure  
Sea Level Pressure 30.29 in    
Wind  
Wind Speed 15 mph (North)    
Max Wind Speed 23 mph    
Max Gust Speed 31 mph    
Visibility 10 miles    
Events Rain    
T = Trace of Precipitation, MM = Missing Value Source: NWS Daily Summary

Daily Weather History Graph

Daily Weather History Graph

Search for Another Location

Airport:

Trip Planner

Search our weather history database for the weather conditions in past years. The results will help you decide how hot, cold, wet, or windy it might be!

Date:

Astronomy

Dec. 13, 2012 Rise Set
Actual Time 7:07 AM EST 4:50 PM EST
Civil Twilight 6:38 AM EST 5:19 PM EST
Nautical Twilight 6:06 AM EST 5:51 PM EST
Astronomical Twilight 5:35 AM EST 6:22 PM EST
Moon 7:14 AM EST (12/13) 5:29 PM EST (12/13)
Length of Visible Light 10h 40m
Length of Day
9h 43m
New Moon, 0% of the Moon is Illuminated
Dec 13
New Moon
Dec 20
First Quarter
Dec 28
Full
Jan 4
Last Quarter
Jan 11
New

Hourly Weather History & Observations

Time (EST) Temp. Windchill Dew Point Humidity Pressure Visibility Wind Dir Wind Speed Gust Speed Precip Events Conditions
12:54 AM 48.9 °F - 43.0 °F 80% 30.25 in 10.0 mi NNE 16.1 mph 24.2 mph 0.04 in Rain Light Rain
1:54 AM 48.9 °F - 43.0 °F 80% 30.27 in 9.0 mi North 17.3 mph - 0.05 in Rain Light Rain
2:54 AM 46.9 °F - 42.1 °F 83% 30.28 in 10.0 mi North 12.7 mph - 0.01 in Rain Light Rain
3:02 AM 46.4 °F 40.7 °F 42.8 °F 87% 30.30 in 9.0 mi NNW 12.7 mph - 0.01 in Rain Light Rain
3:25 AM 46.4 °F 41.1 °F 42.8 °F 87% 30.28 in 8.0 mi North 11.5 mph - 0.02 in Rain Light Rain
3:54 AM 46.0 °F 39.6 °F 41.0 °F 83% 30.25 in 10.0 mi North 15.0 mph - 0.03 in Rain Light Rain
4:54 AM 46.0 °F 39.9 °F 41.0 °F 83% 30.27 in 10.0 mi North 13.8 mph - 0.00 in Rain Light Rain
5:23 AM 46.4 °F 39.8 °F 41.0 °F 81% 30.26 in 10.0 mi North 16.1 mph - 0.00 in Rain Light Rain
5:54 AM 46.0 °F 39.9 °F 42.1 °F 86% 30.26 in 8.0 mi North 13.8 mph - 0.01 in Rain Light Rain
6:45 AM 46.4 °F 40.1 °F 42.8 °F 87% 30.26 in 10.0 mi North 15.0 mph - 0.00 in Rain Light Rain
6:54 AM 46.9 °F - 42.1 °F 83% 30.25 in 10.0 mi North 17.3 mph - 0.00 in   Overcast
7:54 AM 46.0 °F 39.6 °F 41.0 °F 83% 30.28 in 10.0 mi North 15.0 mph - 0.00 in   Overcast
8:24 AM 46.4 °F 39.2 °F 41.0 °F 81% 30.27 in 7.0 mi North 18.4 mph - 0.00 in Rain Light Rain
8:43 AM 46.4 °F 40.1 °F 42.8 °F 87% 30.27 in 9.0 mi North 15.0 mph 24.2 mph 0.00 in   Overcast
8:54 AM 46.9 °F - 42.1 °F 83% 30.27 in 9.0 mi North 19.6 mph - 0.00 in   Overcast
9:54 AM 48.9 °F - 43.0 °F 80% 30.30 in 10.0 mi North 17.3 mph - N/A   Overcast
10:43 AM 51.8 °F - 44.6 °F 76% 30.31 in 10.0 mi North 13.8 mph - N/A   Overcast
10:54 AM 52.0 °F - 45.0 °F 77% 30.31 in 10.0 mi North 13.8 mph - N/A   Overcast
11:45 AM 53.6 °F - 44.6 °F 72% 30.30 in 10.0 mi NNE 13.8 mph - N/A   Overcast
11:54 AM 54.0 °F - 45.0 °F 72% 30.30 in 10.0 mi North 16.1 mph 24.2 mph N/A   Overcast
12:54 PM 55.0 °F - 44.1 °F 67% 30.30 in 10.0 mi North 17.3 mph 28.8 mph N/A   Overcast
1:43 PM 53.6 °F - 42.8 °F 67% 30.30 in 10.0 mi North 19.6 mph 31.1 mph N/A   Overcast
1:54 PM 55.0 °F - 43.0 °F 64% 30.30 in 10.0 mi North 19.6 mph - N/A   Mostly Cloudy
2:01 PM 55.4 °F - 42.8 °F 63% 30.30 in 10.0 mi North 16.1 mph 25.3 mph N/A   Mostly Cloudy
2:54 PM 55.0 °F - 43.0 °F 64% 30.30 in 10.0 mi North 18.4 mph 25.3 mph N/A   Mostly Cloudy
3:16 PM 53.6 °F - 42.8 °F 67% 30.30 in 10.0 mi North 19.6 mph 25.3 mph N/A   Scattered Clouds
3:54 PM 53.1 °F - 41.0 °F 64% 30.31 in 10.0 mi North 19.6 mph 24.2 mph N/A   Partly Cloudy
4:54 PM 51.1 °F - 39.9 °F 66% 30.32 in 10.0 mi North 16.1 mph - N/A   Clear
7:54 PM 46.0 °F 41.4 °F 39.9 °F 79% 30.33 in 10.0 mi North 9.2 mph - N/A   Clear
8:54 PM 46.0 °F 41.4 °F 39.9 °F 79% 30.33 in 10.0 mi North 9.2 mph - N/A   Clear
9:54 PM 45.0 °F 40.1 °F 39.0 °F 80% 30.33 in 10.0 mi NNW 9.2 mph - N/A   Clear
10:54 PM 45.0 °F 40.1 °F 39.0 °F 80% 30.33 in 10.0 mi North 9.2 mph - N/A   Clear
11:54 PM 45.0 °F 40.1 °F 39.0 °F 80% 30.32 in 10.0 mi NNW 9.2 mph - N/A   Clear